This is the latest recevied weather packets stored in our database for station/object KA1AL. If no packets are shown the sender has not sent any weather packets the latest 10 day(s).
| Time | Temp. | Humidity | Pressure | Rain* | Wind** | Luminosity | Snow |
|---|---|---|---|---|---|---|---|
| 1777324838 | 19.44° C | 46% | 1022.5 hPa | 0 mm | - | 77 W/m² | - |
| 1777324537 | 19.44° C | 47% | 1022.5 hPa | 0 mm | - | 77 W/m² | - |
| 1777324233 | 19.44° C | 48% | 1022.3 hPa | 0 mm | - | 77 W/m² | - |
| 1777323931 | 19.44° C | 47% | 1022.3 hPa | 0 mm | - | 72 W/m² | - |
| 1777323628 | 19.44° C | 45% | 1022.5 hPa | 0 mm | - | 72 W/m² | - |
| 1777323325 | 19.44° C | 46% | 1022.2 hPa | 0 mm | - | 78 W/m² | - |
| 1777323023 | 19.44° C | 46% | 1022.4 hPa | 0 mm | - | 85 W/m² | - |
| 1777322721 | 19.44° C | 45% | 1022.2 hPa | 0 mm | - | 93 W/m² | - |
| 1777322419 | 19.44° C | 45% | 1022.4 hPa | 0 mm | - | 91 W/m² | - |
| 1777322115 | 20° C | 45% | 1022.4 hPa | 0 mm | - | 103 W/m² | - |
| 1777321812 | 20° C | 46% | 1022.1 hPa | 0 mm | - | 128 W/m² | - |
| 1777321508 | 20° C | 46% | 1022.1 hPa | 0 mm | - | 143 W/m² | - |
| 1777321206 | 20° C | 45% | 1022.4 hPa | 0 mm | - | 165 W/m² | - |
| 1777320903 | 20° C | 46% | 1022.3 hPa | 0 mm | - | 167 W/m² | - |
| 1777320600 | 20° C | 47% | 1022.5 hPa | 0 mm | - | 156 W/m² | - |
| 1777320297 | 19.44° C | 48% | 1022.3 hPa | 0 mm | - | 142 W/m² | - |
| 1777319994 | 19.44° C | 47% | 1022.3 hPa | 0 mm | - | 126 W/m² | - |
| 1777319691 | 20° C | 46% | 1022.3 hPa | 0 mm | - | 137 W/m² | - |
| 1777319388 | 20° C | 45% | 1022.4 hPa | 0 mm | - | 388 W/m² | - |
| 1777319085 | 20° C | 47% | 1022.3 hPa | 0 mm | - | 571 W/m² | - |
| 1777318782 | 20° C | 47% | 1022.5 hPa | 0 mm | - | 208 W/m² | - |
| 1777318478 | 20° C | 47% | 1022.7 hPa | 0 mm | - | 183 W/m² | - |
| 1777318175 | 20.56° C | 47% | 1022.5 hPa | 0 mm | - | 235 W/m² | - |
| 1777317872 | 21.11° C | 47% | 1022.6 hPa | 0 mm | - | 587 W/m² | - |
| 1777317569 | 21.11° C | 46% | 1022.8 hPa | 0 mm | - | 670 W/m² | - |
* Rain latest hour (hover to see other rain measurements)
** Current wind speed in m/s (hover to see current wind gust speed)